Regional Weather Roundup
Issued by NWS New Orleans/Baton Rouge, LA

Home | Current Version | Previous Version | Text Only | Print | Product List | Glossary On
Versions: 1 2 3 4 5 6 7 8 9 10 11 12 13 14 15 16 17 18 19 20 21 22 23 24 25 26 27 28 29 30 31 32 33 34 35 36 37 38 39 40 41 42 43 44 45 46 47 48 49 50
000
ASUS44 KLIX 280812
RWRLIX
NEW ORLEANS REGIONAL WEATHER ROUNDUP
NATIONAL WEATHER SERVICE NEW ORLEANS LA
300 AM CDT TUE JUL 28 2015

NOTE: "FAIR" INDICATES FEW OR NO CLOUDS BELOW 12,000 FEET WITH NO
      SIGNIFICANT WEATHER AND/OR OBSTRUCTIONS TO VISIBILITY.
      SKY/WX - SKY CONDITION AND SIGNIFICANT WEATHER.
      TMP - AIR TEMPERATURE.     DP    - DEWPOINT TEMPERATURE.
      RH  - RELATIVE HUMIDITY.   PRES  - PRESSURE.
      HI  - HEAT INDEX.          WCI   - WIND CHILL INDEX.

*  THESE STATIONS ARE NOT NWS OR FAA STATIONS AND ARE NOT UNDER
   NWS QUALITY CONTROL.

LAZ038-040-048-061>063-065>067-069-280900-
SOUTHEAST LOUISIANA

CITY           SKY/WX    TMP DP  RH WIND       PRES   REMARKS
N.O. AUDUBON     N/A     81  76  85 MISG        N/A
N.O. INTL ARPT PTCLDY    79  73  82 NW5       29.97F
N.O. LAKEFRONT CLEAR     87  74  64 W8        29.97F HX  95
N.O. DOWNTOWN*   N/A     82  73  74 CALM      29.98F
RESERVE*         N/A     79  75  90 CALM      29.97F
SLIDELL        CLEAR     75  74  96 CALM      29.97S
BATON ROUGE    CLEAR     77  73  87 CALM      29.97F
BOOTHVILLE     CLEAR     82  74  76 CALM      29.98S
BELLE CHASSE   CLEAR     75  73  93 CALM      29.97F
BOGALUSA*        N/A     76  72  86 CALM      29.99F
GALLIANO*      NOT AVBL
NEW ROADS*       N/A    N/A N/A N/A CALM      29.97S
GONZALES*        N/A     76  76 100 CALM      29.96F
HAMMOND*       CLEAR     77  72  83 CALM      29.99F
HOUMA*         CLEAR     76  75  98 CALM      29.97F
PORT FOURCHON* SUNNY     84  75  74 CALM      29.98S

$$

MSZ070-080>082-280900-
SOUTHERN MISSISSIPPI

CITY           SKY/WX    TMP DP  RH WIND       PRES   REMARKS
MCCOMB         CLEAR     77  74  90 CALM      29.98F
GULFPORT       CLEAR     77  74  90 NW3       29.96F
BILOXI         CLEAR     80  76  86 VRB1      29.96F
PASCAGOULA     CLEAR     74  74 100 CALM      29.95F FOG

$$

COASTAL OBSERVATIONS
LAKE AND NEARSHORE STATIONS

STATION/POSITION TIME  TEMP    WIND        PRES    WAVE
                       AIR SEA DIR/SP/G            HT/PER
                 (UTC) (F)     (DEG/KT/KT) (MB)    (FT/S)
PASCAGOULA       0700   83     290/  5/  6 1014.3
WAVELAND YACHT   0700   81 89  270/  5/  7 1015.2
GRAND ISLE       0700   85 90  220/  2/  2 1015.3
SOUTHWEST PASS   0700   85 86  290/  3/  4 1015.4
NEW CANAL        0700   84 89  230/  3/  4 1014.5
SHELL BEACH      0700   83 89  260/  7/  8 1014.6

OFFSHORE STATIONS

STATION/POSITION TIME  TEMP    WIND        PRES    WAVE
                       AIR SEA DIR/SP/G            HT/PER
                 (UTC) (F)     (DEG/KT/KT) (MB)    (FT/S)
64 S DAUPHIN ISL 0750   85 87  290/  8/  8 1014.5    1

$$



USA.gov is the U.S. government's official web portal to all federal, state and local government web resources and services.